Nebraska City, NE

12:21 AM CST on February 26, 2017 (GMT -0600)
Nebraska City Municipal

Weather History for KAFK - April, 2014

Change the Weather History Date:

Friday, April 25, 2014

  Actual Average (KSDA) Record (KSDA)
Temperature  
Mean Temperature 62 °F -  
Max Temperature 80 °F 70 °F 91 °F (2012)
Min Temperature 43 °F 44 °F 28 °F (2013)
Degree Days  
Heating Degree Days 4    
Growing Degree Days 12 (Base 50)    
Moisture  
Dew Point 40 °F    
Average Humidity 51    
Maximum Humidity 83    
Minimum Humidity 21    
Precipitation  
Precipitation 0.00 in - - ()
Sea Level Pressure  
Sea Level Pressure 29.82 in    
Wind  
Wind Speed 11 mph (SW)    
Max Wind Speed 23 mph    
Max Gust Speed 30 mph    
Visibility 10 miles    
Events      
Averages and records for this station are not official NWS values.
T = Trace of Precipitation, MM = Missing Value Source: NWS Daily Summary

Daily Weather History Graph

Daily Weather History Graph

Search for Another Location

Airport or City:

Trip Planner

Search our weather history database for the weather conditions in past years. The results will help you decide how hot, cold, wet, or windy it might be!

Date:

Astronomy

Apr. 25, 2014 Rise Set
Actual Time 6:30 AM CDT 8:13 PM CDT
Civil Twilight 6:01 AM CDT 8:42 PM CDT
Nautical Twilight 5:25 AM CDT 9:17 PM CDT
Astronomical Twilight 4:48 AM CDT 9:55 PM CDT
Moon 4:20 AM CDT (4/25) 4:35 PM CDT (4/25)
Length of Visible Light 14h 41m
Length of Day
13h 42m
Waning Crescent, 15% of the Moon is Illuminated
Apr 25
Waning Crescent
Apr 29
New
May 6
First Quarter
May 14
Full
May 21
Last Quarter

Hourly Weather History & Observations

Time (CDT) Temp. Windchill Dew Point Humidity Pressure Visibility Wind Dir Wind Speed Gust Speed Precip Events Conditions
12:15 AM 48.4 °F - 43.2 °F 82% 29.83 in 10.0 mi SSW 8.1 mph - N/A   Clear
12:35 AM 48.2 °F - 42.4 °F 80% 29.83 in 10.0 mi SW 8.1 mph - N/A   Clear
12:55 AM 48.2 °F - 43.2 °F 83% 29.83 in 10.0 mi SW 9.2 mph - N/A   Clear
1:15 AM 48.6 °F - 42.4 °F 79% 29.83 in 10.0 mi SW 10.4 mph - N/A   Clear
1:35 AM 49.1 °F - 41.5 °F 75% 29.83 in 10.0 mi SW 11.5 mph - N/A   Clear
1:55 AM 48.9 °F - 41.0 °F 74% 29.83 in 10.0 mi SW 11.5 mph - N/A   Clear
2:15 AM 48.2 °F - 40.8 °F 76% 29.83 in 10.0 mi SW 11.5 mph - N/A   Clear
2:35 AM 47.5 °F - 40.5 °F 77% 29.83 in 10.0 mi SW 10.4 mph - N/A   Clear
2:55 AM 45.1 °F 39.5 °F 40.1 °F 82% 29.83 in 10.0 mi WSW 11.5 mph - N/A   Clear
3:15 AM 44.8 °F 39.0 °F 39.7 °F 82% 29.83 in 10.0 mi WSW 11.5 mph - N/A   Clear
3:35 AM 44.4 °F 37.9 °F 39.4 °F 82% 29.84 in 10.0 mi WSW 13.8 mph - N/A   Clear
3:55 AM 45.1 °F 39.5 °F 39.2 °F 80% 29.84 in 10.0 mi WSW 11.5 mph - N/A   Clear
4:15 AM 45.0 °F 39.7 °F 38.7 °F 79% 29.84 in 10.0 mi WSW 10.4 mph - N/A   Clear
4:35 AM 46.8 °F - 38.1 °F 72% 29.84 in 10.0 mi WSW 11.5 mph - N/A   Clear
4:55 AM 45.9 °F 40.8 °F 37.8 °F 73% 29.84 in 10.0 mi WSW 10.4 mph - N/A   Clear
5:15 AM 44.6 °F 38.8 °F 37.6 °F 76% 29.84 in 10.0 mi WSW 11.5 mph - N/A   Clear
5:35 AM 46.2 °F 41.2 °F 36.9 °F 70% 29.84 in 10.0 mi West 10.4 mph - N/A   Clear
5:55 AM 45.1 °F 40.3 °F 36.9 °F 73% 29.84 in 10.0 mi WSW 9.2 mph - N/A   Clear
6:15 AM 44.6 °F 39.2 °F 36.9 °F 74% 29.85 in 10.0 mi WSW 10.4 mph - N/A   Clear
6:35 AM 45.3 °F 41.6 °F 36.5 °F 71% 29.85 in 10.0 mi SW 6.9 mph - N/A   Clear
6:55 AM 43.0 °F 40.3 °F 36.5 °F 78% 29.85 in 10.0 mi SSW 4.6 mph - N/A   Clear
7:15 AM 43.7 °F - 37.4 °F 78% 29.86 in 10.0 mi Calm Calm - N/A   Clear
7:35 AM 45.1 °F - 38.8 °F 79% 29.86 in 10.0 mi Calm Calm - N/A   Clear
7:55 AM 50.0 °F - 39.7 °F 68% 29.86 in 10.0 mi SW 8.1 mph - N/A   Clear
8:15 AM 50.7 °F - 40.1 °F 67% 29.87 in 10.0 mi SW 9.2 mph - N/A   Clear
8:35 AM 52.0 °F - 40.6 °F 65% 29.86 in 10.0 mi SW 11.5 mph - N/A   Clear
8:55 AM 54.5 °F - 41.4 °F 61% 29.87 in 10.0 mi WSW 11.5 mph - N/A   Clear
9:15 AM 56.1 °F - 41.9 °F 59% 29.87 in 10.0 mi SW 9.2 mph - N/A   Clear
9:35 AM 58.3 °F - 41.5 °F 54% 29.87 in 10.0 mi SW 8.1 mph - N/A   Clear
9:55 AM 60.3 °F - 41.7 °F 50% 29.87 in 10.0 mi WSW 10.4 mph - N/A   Clear
10:15 AM 61.9 °F - 41.4 °F 47% 29.87 in 10.0 mi WSW 12.7 mph - N/A   Clear
10:35 AM 64.2 °F - 41.4 °F 43% 29.87 in 10.0 mi West 13.8 mph - N/A   Clear
10:55 AM 65.7 °F - 41.2 °F 41% 29.88 in 10.0 mi WSW 16.1 mph - N/A   Clear
11:15 AM 67.6 °F - 41.4 °F 38% 29.87 in 10.0 mi WSW 19.6 mph 24.2 mph N/A   Clear
11:35 AM 69.1 °F - 42.3 °F 38% 29.87 in 10.0 mi WSW 16.1 mph - N/A   Clear
11:55 AM 70.2 °F - 41.4 °F 35% 29.86 in 10.0 mi WSW 15.0 mph - N/A   Clear
12:15 PM 72.5 °F - 42.3 °F 34% 29.85 in 10.0 mi WSW 17.3 mph 23.0 mph N/A   Clear
12:35 PM 72.3 °F - 40.5 °F 32% 29.84 in 10.0 mi WSW 19.6 mph 25.3 mph N/A   Clear
12:55 PM 73.9 °F - 39.7 °F 29% 29.84 in 10.0 mi SW 23.0 mph 26.5 mph N/A   Clear
1:15 PM 76.1 °F - 39.0 °F 26% 29.83 in 10.0 mi WSW 18.4 mph 26.5 mph N/A   Clear
1:35 PM 76.3 °F - 36.5 °F 24% 29.82 in 10.0 mi WSW 20.7 mph 27.6 mph N/A   Clear
1:55 PM 77.4 °F - 37.6 °F 24% 29.82 in 10.0 mi WSW 18.4 mph 25.3 mph N/A   Clear
2:15 PM 78.4 °F - 37.4 °F 23% 29.82 in 10.0 mi WSW 19.6 mph 29.9 mph N/A   Clear
2:35 PM 78.3 °F - 35.4 °F 21% 29.81 in 10.0 mi WSW 19.6 mph 26.5 mph N/A   Clear
2:55 PM 79.0 °F - 36.0 °F 21% 29.81 in 10.0 mi SW 21.9 mph 26.5 mph N/A   Clear
3:15 PM 79.5 °F - 37.4 °F 22% 29.80 in 10.0 mi WSW 16.1 mph 25.3 mph N/A   Clear
3:35 PM 79.5 °F - 37.0 °F 22% 29.79 in 10.0 mi SW 21.9 mph 26.5 mph N/A   Clear
3:55 PM 79.9 °F - 37.8 °F 22% 29.79 in 10.0 mi SW 18.4 mph 25.3 mph N/A   Clear
4:15 PM 80.4 °F - 37.8 °F 22% 29.78 in 10.0 mi WSW 15.0 mph 21.9 mph N/A   Clear
4:35 PM 80.6 °F - 37.0 °F 21% 29.77 in 10.0 mi SW 13.8 mph 20.7 mph N/A   Clear
4:55 PM 79.9 °F - 36.7 °F 21% 29.77 in 10.0 mi SW 17.3 mph 24.2 mph N/A   Clear
5:15 PM 78.4 °F - 36.9 °F 22% 29.77 in 10.0 mi SW 15.0 mph - N/A   Clear
5:35 PM 77.7 °F - 38.8 °F 25% 29.76 in 10.0 mi SW 16.1 mph - N/A   Clear
5:55 PM 76.8 °F - 40.1 °F 27% 29.76 in 10.0 mi SSW 13.8 mph 18.4 mph N/A   Clear
6:15 PM 76.1 °F - 39.7 °F 27% 29.76 in 10.0 mi SSW 11.5 mph - N/A   Clear
6:35 PM 75.6 °F - 40.8 °F 29% 29.76 in 10.0 mi SSW 11.5 mph - N/A   Clear
6:55 PM 75.2 °F - 41.4 °F 30% 29.76 in 10.0 mi South 9.2 mph - N/A   Clear
7:15 PM 72.7 °F - 42.4 °F 34% 29.75 in 10.0 mi South 6.9 mph - N/A   Clear
7:35 PM 70.7 °F - 44.1 °F 38% 29.75 in 10.0 mi SSE 5.8 mph - N/A   Clear
7:55 PM 69.8 °F - 43.0 °F 38% 29.75 in 10.0 mi SSE 5.8 mph - N/A   Clear
8:15 PM 68.4 °F - 43.5 °F 41% 29.75 in 10.0 mi SSE 5.8 mph - N/A   Clear
8:35 PM 67.6 °F - 43.0 °F 41% 29.76 in 10.0 mi South 3.5 mph - N/A   Clear
8:55 PM 66.7 °F - 43.2 °F 42% 29.77 in 10.0 mi SSE 5.8 mph - N/A   Clear
9:15 PM 64.9 °F - 43.7 °F 46% 29.77 in 10.0 mi SSE 5.8 mph - N/A   Clear
9:35 PM 63.7 °F - 43.9 °F 48% 29.78 in 10.0 mi South 5.8 mph - N/A   Clear
9:55 PM 63.0 °F - 43.9 °F 50% 29.79 in 10.0 mi SSE 5.8 mph - N/A   Clear
10:15 PM 62.2 °F - 43.7 °F 51% 29.79 in 10.0 mi South 4.6 mph - N/A   Clear
10:35 PM 60.8 °F - 44.8 °F 56% 29.79 in 10.0 mi South 8.1 mph - N/A   Clear
11:15 PM 59.9 °F - 45.7 °F 59% 29.78 in 10.0 mi South 9.2 mph - N/A   Clear
11:35 PM 60.3 °F - 45.5 °F 58% 29.78 in 10.0 mi South 10.4 mph - N/A   Clear
11:55 PM 59.9 °F - 45.3 °F 59% 29.78 in 10.0 mi South 10.4 mph - N/A   Clear